Weather History for Keene, NH

Change the Weather History Date:

Tuesday, January 1, 2013

  Actual Average Record
Temperature  
Mean Temperature 22 °F -  
Max Temperature 35 °F 32 °F 58 °F (1966)
Min Temperature 6 °F 13 °F -17 °F (1964)
Degree Days  
Heating Degree Days 44    
Moisture  
Dew Point 12 °F    
Average Humidity 54    
Maximum Humidity 80    
Minimum Humidity 40    
Precipitation  
Precipitation 0.00 in - - ()
Sea Level Pressure  
Sea Level Pressure 29.79 in    
Wind  
Wind Speed 8 mph (WNW)    
Max Wind Speed 17 mph    
Max Gust Speed 25 mph    
Visibility 10 miles    
Events      
Averages and records for this station are not official NWS values.
T = Trace of Precipitation, MM = Missing Value Source: NWS Daily Summary

Daily Weather History Graph

Daily Weather History Graph

Search for Another Location

Airport:

Trip Planner

Search our weather history database for the weather conditions in past years. The results will help you decide how hot, cold, wet, or windy it might be!

Date:

Astronomy

Jan. 01, 2013 Rise Set
Actual Time 7:20 AM EST 4:25 PM EST
Civil Twilight 6:47 AM EST 4:57 PM EST
Nautical Twilight 6:12 AM EST 5:33 PM EST
Astronomical Twilight 5:37 AM EST 6:07 PM EST
Moon 9:00 PM EST (1/1) 9:24 AM EST (1/1)
Length of Visible Light 10h 09m
Length of Day
9h 05m
Waning Gibbous, 83% of the Moon is Illuminated
Jan 1
Waning Gibbous
Jan 4
Last Quarter
Jan 11
New
Jan 18
First Quarter
Jan 26
Full

Hourly Weather History & Observations

Time (EST) Temp. Windchill Dew Point Humidity Pressure Visibility Wind Dir Wind Speed Gust Speed Precip Events Conditions
12:15 AM 26.6 °F 20.0 °F 21.2 °F 80% 29.72 in 10.0 mi SSW 5.8 mph - N/A   Overcast
12:35 AM 30.2 °F 21.9 °F 21.2 °F 69% 29.72 in 10.0 mi SSW 9.2 mph - N/A   Overcast
1:35 AM 32.0 °F 24.8 °F 23.0 °F 69% 29.72 in 10.0 mi SSW 8.1 mph - N/A   Overcast
1:55 AM 32.0 °F 24.2 °F 23.0 °F 69% 29.72 in 10.0 mi SSW 9.2 mph - N/A   Overcast
2:15 AM 33.8 °F 27.0 °F 24.8 °F 70% 29.72 in 10.0 mi SSW 8.1 mph - N/A   Overcast
2:35 AM 33.8 °F 27.0 °F 24.8 °F 70% 29.71 in 10.0 mi SW 8.1 mph - N/A   Overcast
3:15 AM 33.8 °F 27.7 °F 24.8 °F 70% 29.70 in 10.0 mi SSW 6.9 mph - N/A   Overcast
4:15 AM 33.8 °F 28.6 °F 24.8 °F 70% 29.70 in 10.0 mi South 5.8 mph - N/A   Overcast
4:35 AM 33.8 °F 29.6 °F 24.8 °F 70% 29.70 in 10.0 mi South 4.6 mph - N/A   Overcast
5:15 AM 35.6 °F - 24.8 °F 65% 29.71 in 10.0 mi Calm Calm - N/A   Overcast
5:35 AM 33.8 °F 28.6 °F 24.8 °F 70% 29.72 in 10.0 mi South 5.8 mph - N/A   Overcast
5:55 AM 33.8 °F 30.8 °F 23.0 °F 65% 29.72 in 10.0 mi South 3.5 mph - N/A   Overcast
6:15 AM 35.6 °F 30.7 °F 21.2 °F 56% 29.73 in 10.0 mi West 5.8 mph 17.3 mph N/A   Overcast
6:55 AM 33.8 °F 25.8 °F 15.8 °F 48% 29.75 in 10.0 mi West 10.4 mph 17.3 mph N/A   Overcast
7:15 AM 33.8 °F 28.6 °F 15.8 °F 48% 29.76 in 10.0 mi WNW 5.8 mph - N/A   Overcast
7:35 AM 33.8 °F 25.8 °F 17.6 °F 52% 29.77 in 10.0 mi West 10.4 mph 17.3 mph N/A   Overcast
8:15 AM 30.2 °F 18.5 °F 14.0 °F 51% 29.78 in 10.0 mi WNW 17.3 mph 21.9 mph N/A   Scattered Clouds
8:35 AM 30.2 °F 20.2 °F 12.2 °F 47% 29.78 in 10.0 mi NW 12.7 mph 24.2 mph N/A   Mostly Cloudy
8:55 AM 30.2 °F 22.6 °F 12.2 °F 47% 29.79 in 10.0 mi NNW 8.1 mph - N/A   Overcast
9:15 AM 30.2 °F 20.2 °F 12.2 °F 47% 29.79 in 10.0 mi NNW 12.7 mph 19.6 mph N/A   Overcast
10:15 AM 30.2 °F 21.9 °F 12.2 °F 47% 29.82 in 10.0 mi NNW 9.2 mph - N/A   Mostly Cloudy
10:35 AM 30.2 °F 21.3 °F 12.2 °F 47% 29.82 in 10.0 mi NNW 10.4 mph 18.4 mph N/A   Overcast
11:15 AM 30.2 °F 20.8 °F 12.2 °F 47% 29.80 in 10.0 mi NNW 11.5 mph 17.3 mph N/A   Mostly Cloudy
12:15 PM 30.2 °F 22.6 °F 10.4 °F 44% 29.78 in 10.0 mi NNW 8.1 mph - N/A   Overcast
12:35 PM 30.2 °F 20.8 °F 8.6 °F 40% 29.78 in 10.0 mi WNW 11.5 mph 24.2 mph N/A   Overcast
12:55 PM 30.2 °F 20.2 °F 10.4 °F 44% 29.77 in 10.0 mi NNW 12.7 mph 23.0 mph N/A   Overcast
1:15 PM 30.2 °F 20.2 °F 8.6 °F 40% 29.78 in 10.0 mi WNW 12.7 mph 25.3 mph N/A   Mostly Cloudy
1:35 PM 30.2 °F 21.9 °F 10.4 °F 44% 29.77 in 10.0 mi WNW 9.2 mph 24.2 mph N/A   Mostly Cloudy
1:55 PM 30.2 °F 21.3 °F 10.4 °F 44% 29.77 in 10.0 mi West 10.4 mph 20.7 mph N/A   Mostly Cloudy
2:15 PM 30.2 °F 19.8 °F 10.4 °F 44% 29.77 in 10.0 mi NW 13.8 mph 19.6 mph N/A   Mostly Cloudy
2:35 PM 30.2 °F 21.3 °F 8.6 °F 40% 29.77 in 10.0 mi NW 10.4 mph 21.9 mph N/A   Mostly Cloudy
2:55 PM 30.2 °F 21.9 °F 8.6 °F 40% 29.78 in 10.0 mi NW 9.2 mph 16.1 mph N/A   Partly Cloudy
3:15 PM 28.4 °F 18.5 °F 8.6 °F 43% 29.78 in 10.0 mi NNW 11.5 mph 20.7 mph N/A   Scattered Clouds
3:35 PM 28.4 °F 18.5 °F 8.6 °F 43% 29.78 in 10.0 mi NNW 11.5 mph - N/A   Scattered Clouds
4:15 PM 26.6 °F 17.5 °F 8.6 °F 47% 29.81 in 10.0 mi North 9.2 mph - N/A   Partly Cloudy
4:35 PM 26.6 °F 19.1 °F 8.6 °F 47% 29.80 in 10.0 mi NNW 6.9 mph - N/A   Partly Cloudy
5:15 PM 24.8 °F 19.1 °F 6.8 °F 46% 29.82 in 10.0 mi NW 4.6 mph - N/A   Clear
5:35 PM 24.8 °F 16.9 °F 6.8 °F 46% 29.82 in 10.0 mi NNW 6.9 mph - N/A   Clear
5:55 PM 23.0 °F 17.0 °F 5.0 °F 46% 29.84 in 10.0 mi North 4.6 mph - N/A   Clear
6:35 PM 23.0 °F 17.0 °F 6.8 °F 50% 29.87 in 10.0 mi North 4.6 mph - N/A   Clear
6:55 PM 19.4 °F 10.4 °F 3.2 °F 49% 29.87 in 10.0 mi NNW 6.9 mph - N/A   Clear
7:15 PM 19.4 °F 11.5 °F 5.0 °F 54% 29.88 in 10.0 mi NNW 5.8 mph - N/A   Clear
7:35 PM 19.4 °F 11.5 °F 3.2 °F 49% 29.89 in 10.0 mi NNW 5.8 mph - N/A   Clear
7:55 PM 17.6 °F 9.3 °F 3.2 °F 53% 29.89 in 10.0 mi NNW 5.8 mph - N/A   Clear
8:35 PM 17.6 °F 10.7 °F 3.2 °F 53% 29.89 in 10.0 mi NW 4.6 mph - N/A   Clear
8:55 PM 12.2 °F 2.9 °F -2.2 °F 53% 29.89 in 10.0 mi NNW 5.8 mph - N/A   Clear
10:55 PM 12.2 °F - 1.4 °F 62% 29.93 in 10.0 mi Calm Calm - N/A   Clear
11:15 PM 10.4 °F - -0.4 °F 62% 29.92 in 10.0 mi Calm Calm - N/A   Clear
11:35 PM 8.6 °F - -0.4 °F 67% 29.92 in 10.0 mi Calm Calm - N/A   Clear
11:55 PM 6.8 °F - -0.4 °F 72% 29.92 in 10.0 mi Calm Calm - N/A   Clear